Estación de San Felipe

Ultimos registro cada 15 minutos 83
Estación Fecha / Hora Temperatura Humedad Lluvia Velocidad Dirección Radiación Presion
83 San Felipe 08-05-2026 20:30 9 64,5 0 0 143 0,6 939,4
82 San Felipe 08-05-2026 20:15 9,5 64,7 0 0 143 0,6 939,5
81 San Felipe 08-05-2026 20:00 9,6 65,7 0 0 143 0,6 939,5
80 San Felipe 08-05-2026 19:45 8,8 66,3 0 0 143 0,6 939,4
79 San Felipe 08-05-2026 19:30 9,8 63,4 0 0 143 0,6 939,3
78 San Felipe 08-05-2026 19:15 9,9 62 0 0 143 0,6 939,2
77 San Felipe 08-05-2026 19:00 10,4 60,5 0 0 160 0,6 938,9
76 San Felipe 08-05-2026 18:45 11,2 57,1 0 0 171 0,6 939
75 San Felipe 08-05-2026 18:30 12,2 54,1 0 0 171 0,6 938,7
74 San Felipe 08-05-2026 18:15 13,9 49,5 0 0 171 0,6 938,4
73 San Felipe 08-05-2026 18:00 14,3 46,8 0 0 171 0,6 938,5
72 San Felipe 08-05-2026 17:45 16 41,4 0 0 171 4,4 938,5
71 San Felipe 08-05-2026 17:30 17,7 37,9 0 1 178 9,4 938,4
70 San Felipe 08-05-2026 17:15 17,8 36,8 0 0 174 16,9 938,5
69 San Felipe 08-05-2026 17:00 18,9 33,6 0 0 174 20,6 938,4
68 San Felipe 08-05-2026 16:45 21,4 30,6 0 0 240 110,6 938,4
67 San Felipe 08-05-2026 16:30 22,8 28,7 0 0 247 184,4 938,5
66 San Felipe 08-05-2026 16:15 24 28,8 0 0 289 218,1 938,4
65 San Felipe 08-05-2026 16:00 23,1 28,4 0 0 261 251,9 938,4
64 San Felipe 08-05-2026 15:45 23,6 29,9 0 0 257 285,6 938,7
63 San Felipe 08-05-2026 15:30 24 29,8 0 0 230 318,1 938,7
62 San Felipe 08-05-2026 15:15 23,7 29,1 0 0 260 349,4 938,9
61 San Felipe 08-05-2026 15:00 25,5 28,9 0 0 343 375,6 939
60 San Felipe 08-05-2026 14:45 24 28,8 0 0 35 405,6 939
59 San Felipe 08-05-2026 14:30 24,3 28,8 0 0 27 429,4 939
58 San Felipe 08-05-2026 14:15 23,6 28,9 0 0 31 451,9 939,2
57 San Felipe 08-05-2026 14:00 23 30,1 0 0 110 471,9 939,3
56 San Felipe 08-05-2026 13:45 22,1 31,3 0 0 337 485,6 939,5
55 San Felipe 08-05-2026 13:30 22,3 30,3 0 0 334 38,1 939,5
54 San Felipe 08-05-2026 13:15 22,5 31,5 0 0 298 516,9 939,8
53 San Felipe 08-05-2026 13:00 22,3 33,5 0 0 265 521,9 940
52 San Felipe 08-05-2026 12:45 22 34,5 0 0 213 525,6 940,3
51 San Felipe 08-05-2026 12:30 20,2 40 0 0 298 520,6 940,4
50 San Felipe 08-05-2026 12:15 20,1 39 0 0 3 516,9 940,8
49 San Felipe 08-05-2026 12:00 20,3 39,6 0 0 330 509,4 940,9
48 San Felipe 08-05-2026 11:45 19,9 46,3 0 0 286 496,9 940,9
47 San Felipe 08-05-2026 11:30 18,3 50,5 0 0 260 485,6 941,2
46 San Felipe 08-05-2026 11:15 18,2 50,8 0 0 281 464,4 941,3
45 San Felipe 08-05-2026 11:00 17,9 56,9 0 0 41 443,1 941,6
44 San Felipe 08-05-2026 10:45 16,4 60,9 0 0 48 418,1 941,8
43 San Felipe 08-05-2026 10:30 14,3 64,6 0 0 95 390,6 942
42 San Felipe 08-05-2026 10:15 12,7 68,9 0 0 111 43,1 942,2
41 San Felipe 08-05-2026 10:00 12 72,8 0 0 44 55,6 942,2
40 San Felipe 08-05-2026 09:45 12,5 75,3 0 0 58 51,9 942
39 San Felipe 08-05-2026 09:30 9,4 81,8 0 0 55 55,6 942,2
38 San Felipe 08-05-2026 09:15 8,7 88,2 0 0 56 36,9 942,5
37 San Felipe 08-05-2026 09:00 7,2 91,7 0 0 91 33,1 942,4
36 San Felipe 08-05-2026 08:45 6,9 93,7 0 0 101 124,4 942,4
35 San Felipe 08-05-2026 08:30 5,6 94,7 0 0 122 28,1 942,4
34 San Felipe 08-05-2026 08:15 4 95 0 0 111 41,9 942,9
33 San Felipe 08-05-2026 08:00 2,1 95,6 0 0 31 44,4 942,9
32 San Felipe 08-05-2026 07:45 1,8 95,4 0 0 21 5,6 942,8
31 San Felipe 08-05-2026 07:30 2 95,5 0 0 21 3,1 942,9
30 San Felipe 08-05-2026 07:15 2 95,4 0 0 21 0,6 942,8
29 San Felipe 08-05-2026 07:00 2,2 95,3 0 0 21 0,6 942,5
28 San Felipe 08-05-2026 06:45 2,6 95,1 0 0 21 0,6 942,5
27 San Felipe 08-05-2026 06:30 2,9 95,4 0 0 21 0,6 942,4
26 San Felipe 08-05-2026 06:15 2,4 95 0 0 21 0,6 942,4
25 San Felipe 08-05-2026 06:00 2,3 94,9 0 0 21 0,6 942,3
24 San Felipe 08-05-2026 05:45 2,4 94,6 0 0 21 0,6 942,1
23 San Felipe 08-05-2026 05:30 2,4 94,3 0 0 21 0,6 942
22 San Felipe 08-05-2026 05:15 2,5 94,2 0 0 21 0,6 941,8
21 San Felipe 08-05-2026 05:00 3 93,8 0 0 21 0,6 941,8
20 San Felipe 08-05-2026 04:45 3,1 93,4 0 0 21 0,6 941,6
19 San Felipe 08-05-2026 04:30 3,8 93,3 0 0 21 0,6 941,8
18 San Felipe 08-05-2026 04:15 3,9 92,8 0 0 21 0,6 942
17 San Felipe 08-05-2026 04:00 4,2 92,8 0 0 22 0,6 942,3
16 San Felipe 08-05-2026 03:45 4,3 92,7 0 0 22 0,6 942,3
15 San Felipe 08-05-2026 03:30 4,2 91,9 0 0 22 0,6 942,4
14 San Felipe 08-05-2026 03:15 4,3 91,2 0 0 22 0,6 942,4
13 San Felipe 08-05-2026 03:00 4,1 90,3 0 0 22 0,6 942,4
12 San Felipe 08-05-2026 02:45 4,7 89,2 0 0 22 0,6 942,6
11 San Felipe 08-05-2026 02:30 6,3 89,1 0 0 22 0,6 942,9
10 San Felipe 08-05-2026 02:15 6,4 88 0 0 22 0,6 942,8
9 San Felipe 08-05-2026 02:00 6,4 86,2 0 0 22 0,6 942,9
8 San Felipe 08-05-2026 01:45 7,6 85,3 0 0 22 0,6 942,9
7 San Felipe 08-05-2026 01:30 8,2 83,4 0 0 22 0,6 943
6 San Felipe 08-05-2026 01:15 8,2 82,6 0 0 22 0,6 943,2
5 San Felipe 08-05-2026 01:00 9,1 80,9 0 0 22 0,6 943,3
4 San Felipe 08-05-2026 00:45 9,4 80,4 0 0 22 0,6 943,4
3 San Felipe 08-05-2026 00:30 9,3 80,6 0 0 22 0,6 943,5
2 San Felipe 08-05-2026 00:15 9,2 80,5 0 0 22 0,6 943,7
1 San Felipe 08-05-2026 00:00 9,3 79,1 0 0 22 0,6 943,9